[[{"header":{"parameterUnit":"m.s-1","parameterCategory":1,"la1":30.2991,"la2":30.254,"lo1":-89.0895,"lo2":-89.0444,"dy":0.0017,"dx":0.0017,"nx":28,"ny":28,"refTime":"2023-09-08T09:00:00:Z","depth":0,"parameterNumber":2,"parameterNumberName":"U-component_of_WINDS"},"data":[0,0,0,0,0,0,0,0,0,0,0,0,0,0,0,0,0,0,0,0,0,0,0,0,0,0,0,0,0,0,0,0,0,0,0,0,0,0,0,0,0,0,0,0,0,0,0,0,0,0,0,0,0,0,0,0,0,0,-2.3311,-2.3311,0,-2.3301,-2.33,-2.33,-2.323,-2.3229,-2.3227,-2.3225,-2.3215,-2.3216,-2.3218,0,0,0,0,0,0,0,0,0,0,0,0,0,-2.327,-2.3271,-2.3311,-2.3311,-2.3311,-2.3301,-2.33,-2.33,-2.3231,-2.3228,-2.3226,-2.3224,-2.3215,-2.3216,-2.3218,0,0,0,0,0,0,0,0,0,0,0,0,0,-2.3277,-2.3272,-2.3311,-2.3275,-2.3271,-2.3301,-2.33,-2.33,-2.3231,-2.3228,-2.3226,-2.3223,-2.3214,-2.3216,-2.3218,-2.3282,0,0,-2.3224,-2.3225,0,0,0,0,0,0,0,0,-2.3276,-2.3278,-2.328,-2.3277,-2.3273,-2.3264,-2.3282,-2.3294,-2.3232,-2.3246,-2.3225,-2.3222,-2.3233,-2.3234,-2.3237,-2.3281,-2.3281,-2.3224,-2.3225,-2.3226,-2.3227,0,0,0,0,0,0,0,-2.3276,-2.3278,-2.3307,-2.328,-2.3276,-2.3259,-2.3257,-2.3284,-2.3254,-2.3245,-2.324,-2.3239,-2.3231,-2.3236,-2.3237,-2.3281,-2.3224,-2.3226,-2.3227,-2.3228,-2.3377,-2.3379,0,0,0,0,0,0,-2.3281,-2.3278,-2.3307,-2.3306,-2.3269,-2.3262,-2.326,-2.327,-2.3254,-2.3249,-2.3242,-2.3236,-2.3234,-2.3234,-2.3236,-2.331,-2.3226,-2.3228,-2.3229,-2.3374,-2.3377,-2.338,0,0,0,0,0,0,-2.328,-2.3284,-2.3307,-2.3291,-2.3293,-2.3265,-2.3277,-2.3271,-2.3275,-2.3251,-2.3246,-2.3252,-2.3232,-2.3233,-2.3271,-2.3309,-2.3229,-2.3231,-2.3371,-2.3375,-2.3379,-2.3459,0,0,0,0,0,0,-2.3279,-2.3284,-2.3308,-2.3292,-2.3294,-2.3343,-2.3279,-2.3272,-2.3279,-2.3272,-2.3259,-2.3255,-2.323,-2.3268,-2.3273,-2.331,-2.3232,-2.3367,-2.3373,-2.3378,-2.3453,-2.3465,-2.3476,0,0,0,0,0,-2.3278,-2.3331,-2.3309,-2.3313,-2.3323,-2.3345,-2.3346,-2.3316,-2.3282,-2.3306,-2.3291,-2.3255,-2.3304,-2.3273,-2.3277,-2.3316,-2.3365,-2.3371,-2.3377,-2.3448,-2.3463,-2.3476,0,0,0,0,0,0,-2.3351,-2.3328,-2.3304,-2.3353,-2.3352,-2.3333,-2.3362,-2.3333,-2.3341,-2.3334,-2.3296,-2.3294,-2.3337,-2.333,-2.3296,-2.3377,-2.3328,-2.3336,-2.338,-2.3395,-2.3406,-2.3407,-2.3234,0,0,0,0,0,-2.3373,-2.3393,-2.3371,-2.3417,-2.3417,-2.339,-2.3399,-2.3375,-2.3372,-2.3371,-2.3359,-2.3357,-2.3372,-2.3383,-2.3395,-2.3451,-2.3448,-2.348,-2.3491,-2.3501,-2.3508,-2.3538,-2.3553,-2.3401,-2.3401,-2.3401,0,0,-2.3419,-2.3408,-2.3423,-2.3431,-2.3427,-2.3449,-2.339,-2.3415,-2.3431,-2.3375,-2.341,-2.3401,-2.3397,-2.3445,-2.3465,-2.344,-2.3549,-2.3509,-2.3517,-2.3519,-2.3546,-2.3561,-2.3573,-2.3405,-2.3404,-2.3404,0,0,-2.3513,-2.3507,-2.3545,-2.3542,-2.3537,-2.3518,-2.3528,-2.3514,-2.3506,-2.354,-2.3499,-2.3517,-2.3543,-2.3542,-2.3545,-2.364,-2.3608,-2.3645,-2.3706,-2.3736,-2.3748,-2.3758,-2.3793,-2.3806,-2.3652,-2.3652,-2.3652,0,-2.357,-2.3601,-2.3568,-2.3596,-2.3601,-2.3551,-2.359,-2.3588,-2.3588,-2.3593,-2.3565,-2.3597,-2.3591,-2.3638,-2.3661,-2.3665,-2.3674,-2.3646,-2.3749,-2.3759,-2.3768,-2.3801,-2.3814,-2.3657,-2.3656,-2.3656,-2.3655,0,-2.3672,-2.3695,-2.3726,-2.3727,-2.3735,-2.3768,-2.374,-2.3752,-2.3729,-2.3713,-2.375,-2.374,-2.375,-2.3759,-2.3736,-2.3804,-2.3789,-2.3755,-2.3706,-2.3788,-2.3818,-2.383,-2.3663,-2.3662,-2.366,-2.3659,0,0,-2.3813,-2.3795,-2.3807,-2.3807,-2.3798,-2.3815,-2.3846,-2.3856,-2.3868,-2.3869,-2.3895,-2.3918,-2.3887,-2.3891,-2.3867,-2.3893,-2.397,-2.3856,-2.3856,-2.3879,-2.4045,-2.4071,-2.4086,-2.3948,-2.3951,-2.3952,-2.4045,0,-2.3904,-2.3956,-2.3927,-2.3984,-2.4004,-2.3957,-2.3984,-2.3982,-2.3969,-2.3984,-2.3969,-2.3987,-2.3945,-2.3947,-2.397,-2.3956,-2.4003,-2.3948,-2.3972,-2.3974,-2.3976,-2.4101,-2.4128,-2.4217,-2.4057,-2.4059,-2.406,0,-2.4018,-2.4024,-2.4083,-2.4071,-2.4078,-2.4103,-2.411,-2.4125,-2.4122,-2.411,-2.4115,-2.4085,-2.4115,-2.4065,-2.4106,-2.407,-2.4078,-2.4073,-2.4075,-2.4077,-2.4023,-2.4107,-2.4244,-2.4258,-2.4078,-2.4077,-2.4075,0,-2.4116,-2.4139,-2.4177,-2.4179,-2.4165,-2.4184,-2.4179,-2.4173,-2.4181,-2.4187,-2.4192,-2.4202,-2.4207,-2.4216,-2.4189,-2.4156,-2.4234,-2.4182,-2.4226,-2.4227,-2.4246,-2.4245,-2.4387,-2.425,-2.4249,-2.4249,-2.4249,0,-2.4221,-2.4259,-2.4221,-2.4245,-2.4287,-2.4253,-2.4294,-2.4284,-2.428,-2.4301,-2.4261,-2.4281,-2.4245,-2.4262,-2.4242,-2.4279,-2.4282,-2.4274,-2.4268,-2.4278,-2.4279,-2.4283,-2.4277,-2.4253,-2.4252,-2.4251,-2.4251,0,-2.4338,-2.4314,-2.4353,-2.4337,-2.4334,-2.4365,-2.4352,-2.4373,-2.4357,-2.4384,-2.4389,-2.4364,-2.4382,-2.4356,-2.4372,-2.4358,-2.441,-2.4395,-2.4412,-2.4408,-2.4453,-2.445,-2.4603,-2.4622,-2.4472,-2.4474,-2.4475,0,-2.4408,-2.4436,-2.4423,-2.4435,-2.4432,-2.4451,-2.4459,-2.4427,-2.4437,-2.4435,-2.4457,-2.4472,-2.4482,-2.4514,-2.4497,-2.4509,-2.4494,-2.4547,-2.4496,-2.4505,-2.4496,-2.4495,-2.4498,-2.4558,-2.456,-2.4561,-2.4562,0,-2.4534,-2.4521,-2.4534,-2.4544,-2.4555,-2.456,-2.4563,-2.4575,-2.4541,-2.4555,-2.4573,-2.4581,-2.4597,-2.4613,-2.462,-2.4615,-2.4584,-2.4579,-2.459,-2.4601,-2.461,-2.4606,-2.4442,-2.4576,-2.4574,-2.4573,-2.4573,-2.4572,-2.463,-2.4653,-2.4648,-2.4664,-2.4663,-2.4667,-2.4686,-2.4673,-2.4688,-2.4698,-2.4678,-2.4702,-2.4698,-2.4705,-2.4704,-2.4722,-2.4699,-2.4715,-2.4719,-2.4723,-2.4731,-2.4606,-2.4723,-2.4723,-2.4722,-2.4722,-2.4722,0,-2.4755,-2.4749,-2.4764,-2.477,-2.4783,-2.4752,-2.4754,-2.4767,-2.4788,-2.4787,-2.4798,-2.482,-2.4835,-2.482,-2.4832,-2.4849,-2.4835,-2.4854,-2.4853,-2.4852,-2.475,-2.474,-2.4865,-2.4865,-2.4865,-2.4865,-2.4865,-2.4865,-2.4821,-2.4859,-2.4846,-2.4883,-2.4877,-2.49,-2.4904,-2.4907,-2.4906,-2.4932,-2.4945,-2.4934,-2.4928,-2.4939,-2.4952,-2.4947,-2.4954,-2.4978,-2.4968,-2.4873,-2.4859,-2.4846,-2.4836,-2.4979,-2.4979,-2.5068,-2.5069,-2.507]},{"header":{"parameterUnit":"m.s-1","parameterCategory":1,"la1":30.2991,"la2":30.254,"lo1":-89.0895,"lo2":-89.0444,"dy":0.0017,"dx":0.0017,"nx":28,"ny":28,"refTime":"2023-09-08T09:00:00:Z","depth":0,"parameterNumber":3,"parameterNumberName":"V-component_of_WINDS"},"data":[0,0,0,0,0,0,0,0,0,0,0,0,0,0,0,0,0,0,0,0,0,0,0,0,0,0,0,0,0,0,0,0,0,0,0,0,0,0,0,0,0,0,0,0,0,0,0,0,0,0,0,0,0,0,0,0,0,0,-1.5747,-1.5747,0,-1.5754,-1.5754,-1.5754,-1.572,-1.572,-1.5719,-1.5718,-1.5724,-1.5725,-1.5726,0,0,0,0,0,0,0,0,0,0,0,0,0,-1.5706,-1.5707,-1.5747,-1.5747,-1.5747,-1.5754,-1.5754,-1.5754,-1.5721,-1.5719,-1.5718,-1.5717,-1.5724,-1.5725,-1.5726,0,0,0,0,0,0,0,0,0,0,0,0,0,-1.5719,-1.5707,-1.5747,-1.5732,-1.573,-1.5754,-1.5754,-1.5754,-1.5721,-1.5719,-1.5718,-1.5717,-1.5723,-1.5725,-1.5727,-1.5765,0,0,-1.5732,-1.5732,0,0,0,0,0,0,0,0,-1.5719,-1.5721,-1.5734,-1.5733,-1.5731,-1.5735,-1.5742,-1.5758,-1.5721,-1.5724,-1.5718,-1.5716,-1.5729,-1.573,-1.5734,-1.5766,-1.5766,-1.5732,-1.5733,-1.5733,-1.5734,0,0,0,0,0,0,0,-1.5718,-1.572,-1.575,-1.5734,-1.5733,-1.5724,-1.5724,-1.5744,-1.5735,-1.5724,-1.5722,-1.5723,-1.5728,-1.5733,-1.5734,-1.5766,-1.5732,-1.5733,-1.5734,-1.5735,-1.5829,-1.583,0,0,0,0,0,0,-1.5719,-1.572,-1.575,-1.575,-1.5721,-1.5726,-1.5726,-1.5735,-1.5734,-1.5733,-1.5724,-1.5721,-1.5731,-1.5732,-1.5734,-1.5779,-1.5733,-1.5735,-1.5736,-1.5827,-1.5829,-1.5831,0,0,0,0,0,0,-1.5718,-1.5722,-1.5749,-1.5734,-1.5737,-1.5728,-1.5738,-1.5736,-1.5741,-1.5734,-1.5732,-1.5731,-1.573,-1.5732,-1.5758,-1.5779,-1.5736,-1.5737,-1.5825,-1.5828,-1.583,-1.587,0,0,0,0,0,0,-1.5717,-1.5722,-1.5737,-1.5735,-1.5738,-1.5773,-1.574,-1.5737,-1.5744,-1.574,-1.574,-1.5739,-1.5729,-1.5756,-1.5759,-1.5781,-1.5738,-1.5823,-1.5826,-1.5829,-1.5867,-1.5873,-1.5879,0,0,0,0,0,-1.5716,-1.5748,-1.5738,-1.5741,-1.5756,-1.5774,-1.5776,-1.5764,-1.5746,-1.576,-1.5756,-1.5739,-1.5776,-1.5758,-1.5762,-1.5785,-1.5822,-1.5826,-1.5829,-1.5864,-1.5872,-1.5879,0,0,0,0,0,0,-1.5753,-1.5747,-1.5736,-1.5768,-1.5772,-1.5769,-1.5787,-1.5773,-1.5782,-1.5778,-1.5762,-1.5762,-1.5791,-1.579,-1.577,-1.5822,-1.5796,-1.58,-1.5821,-1.5829,-1.5835,-1.5835,-1.574,0,0,0,0,0,-1.5764,-1.5779,-1.5774,-1.5803,-1.5806,-1.5796,-1.5803,-1.5793,-1.5796,-1.5798,-1.5795,-1.5799,-1.5811,-1.582,-1.5831,-1.5866,-1.5866,-1.5883,-1.5889,-1.5895,-1.5899,-1.5917,-1.5925,-1.5842,-1.5842,-1.5842,0,0,-1.5789,-1.5788,-1.5799,-1.5811,-1.5812,-1.5828,-1.5798,-1.5816,-1.5827,-1.5801,-1.5825,-1.5823,-1.5826,-1.5856,-1.587,-1.5857,-1.5921,-1.5899,-1.5903,-1.5904,-1.5921,-1.5929,-1.5936,-1.5844,-1.5844,-1.5844,0,0,-1.5843,-1.5843,-1.5868,-1.587,-1.5872,-1.5866,-1.5871,-1.587,-1.5868,-1.5892,-1.5872,-1.5885,-1.5907,-1.591,-1.5914,-1.5967,-1.5952,-1.5971,-1.6004,-1.6022,-1.6028,-1.6034,-1.6053,-1.606,-1.5975,-1.5976,-1.5976,0,-1.5873,-1.5896,-1.5882,-1.5901,-1.5907,-1.5883,-1.5907,-1.591,-1.5916,-1.5921,-1.5906,-1.5932,-1.5933,-1.5963,-1.5976,-1.5981,-1.5987,-1.5972,-1.6028,-1.6034,-1.6039,-1.6057,-1.6064,-1.5978,-1.5978,-1.5977,-1.5977,0,-1.5933,-1.595,-1.5969,-1.5975,-1.5983,-1.6005,-1.5993,-1.6003,-1.5992,-1.5987,-1.6011,-1.601,-1.6021,-1.6027,-1.6017,-1.6056,-1.6048,-1.6031,-1.6005,-1.605,-1.6066,-1.6073,-1.5981,-1.598,-1.598,-1.5979,0,0,-1.6011,-1.6008,-1.6016,-1.6018,-1.6019,-1.6031,-1.6051,-1.6061,-1.607,-1.6075,-1.6091,-1.611,-1.6094,-1.6099,-1.6088,-1.6104,-1.6146,-1.6085,-1.6085,-1.6097,-1.6189,-1.6202,-1.621,-1.6136,-1.6137,-1.6138,-1.6189,0,-1.6063,-1.6098,-1.6085,-1.612,-1.6135,-1.6112,-1.613,-1.6132,-1.6128,-1.6139,-1.6134,-1.6147,-1.6126,-1.6128,-1.6143,-1.6138,-1.6165,-1.6134,-1.6151,-1.6152,-1.6151,-1.6219,-1.6233,-1.6281,-1.6196,-1.6197,-1.6197,0,-1.6129,-1.6136,-1.6173,-1.617,-1.6176,-1.6192,-1.62,-1.6211,-1.6213,-1.6209,-1.6214,-1.62,-1.6219,-1.6193,-1.622,-1.6199,-1.6205,-1.6204,-1.6205,-1.6207,-1.6178,-1.6222,-1.6296,-1.6304,-1.6207,-1.6207,-1.6206,0,-1.6181,-1.62,-1.6225,-1.6227,-1.6225,-1.6237,-1.6237,-1.6237,-1.6244,-1.625,-1.6254,-1.6264,-1.6269,-1.6276,-1.6264,-1.6246,-1.6293,-1.6265,-1.6289,-1.629,-1.63,-1.63,-1.6377,-1.6304,-1.6304,-1.6304,-1.6304,0,-1.6241,-1.6264,-1.6248,-1.6263,-1.6289,-1.6274,-1.6299,-1.6296,-1.6297,-1.6311,-1.6291,-1.6305,-1.6289,-1.6301,-1.6292,-1.6316,-1.6318,-1.6315,-1.6312,-1.6317,-1.6317,-1.6321,-1.6317,-1.6306,-1.6305,-1.6305,-1.6305,0,-1.6304,-1.6294,-1.632,-1.6315,-1.6315,-1.6334,-1.633,-1.6344,-1.6337,-1.6355,-1.6358,-1.6349,-1.6362,-1.6351,-1.6364,-1.6358,-1.6389,-1.6381,-1.6388,-1.6386,-1.6411,-1.6409,-1.6492,-1.6502,-1.6424,-1.6424,-1.6425,0,-1.6343,-1.6361,-1.6358,-1.6366,-1.6367,-1.638,-1.6386,-1.6372,-1.6379,-1.6382,-1.6396,-1.6407,-1.6415,-1.6437,-1.6431,-1.644,-1.6433,-1.6462,-1.6435,-1.6438,-1.6434,-1.6433,-1.6434,-1.6468,-1.6468,-1.6469,-1.647,0,-1.6413,-1.6407,-1.6417,-1.6425,-1.6434,-1.6439,-1.6444,-1.6451,-1.6436,-1.6446,-1.6459,-1.6465,-1.6478,-1.6489,-1.6496,-1.6496,-1.6481,-1.6478,-1.6484,-1.6489,-1.6493,-1.6491,-1.6403,-1.6477,-1.6476,-1.6475,-1.6475,-1.6475,-1.6466,-1.648,-1.648,-1.6492,-1.6493,-1.6497,-1.651,-1.6505,-1.6515,-1.6525,-1.6515,-1.6531,-1.6532,-1.654,-1.6541,-1.6553,-1.6541,-1.655,-1.6552,-1.6555,-1.6558,-1.649,-1.6554,-1.6554,-1.6554,-1.6554,-1.6554,0,-1.6534,-1.6533,-1.6544,-1.655,-1.6559,-1.6544,-1.6547,-1.6556,-1.657,-1.6572,-1.658,-1.6595,-1.6606,-1.66,-1.661,-1.662,-1.6613,-1.6623,-1.6622,-1.6622,-1.6568,-1.6562,-1.6629,-1.6629,-1.6628,-1.6628,-1.6628,-1.6628,-1.6571,-1.6595,-1.6588,-1.6612,-1.6611,-1.6626,-1.6629,-1.6633,-1.6634,-1.6651,-1.666,-1.6656,-1.6655,-1.6664,-1.6673,-1.6671,-1.6676,-1.6688,-1.6684,-1.6634,-1.6626,-1.6619,-1.6613,-1.6689,-1.6689,-1.6737,-1.6737,-1.6738]}]]